www.pogodaiklimat.ru
Время
(UTC), дата
06 19.05
09 19.05
12 19.05
15 19.05
18 19.05
21 19.05
00 20.05
03 20.05
06 20.05
09 20.05
12 20.05
15 20.05
18 20.05
21 20.05
00 21.05
03 21.05
06 21.05
09 21.05
12 21.05
15 21.05
18 21.05
21 21.05
00 22.05
03 22.05
06 22.05
09 22.05
12 22.05
15 22.05
18 22.05
21 22.05
00 23.05
03 23.05
06 23.05
09 23.05
12 23.05
15 23.05
18 23.05
21 23.05
00 24.05
03 24.05
06 24.05
09 24.05
12 24.05
15 24.05
18 24.05
21 24.05
00 25.05
03 25.05
06 25.05
09 25.05
12 25.05
15 25.05
18 25.05
21 25.05
00 26.05
Ветер
(напр.,м/с)
Видим. Явления Облачность Т
(С)
Тd
(С)
f
(%)
Тe
(С)
Тes
(С)
Комфортность P
(гПа)
Po
(гПа)
Тmin
(С)
Tmax
(С)
R
(мм)
R24
(мм)
S
(см)
З 6-10
{11}
10 км {ливн. осадки} 10/10 540 м
[Cb calv]
+5.3 +2.5 82 0 0 прохладно 1005.0 989.7
СЗ 8-14
{14}
10 км в посл. час ливневой дождь 10/10 700 м
[Cb calv]
+6.8 +2.0 71 +2 +2 прохладно 1006.2 990.9
СЗ 6
{14}
10 км в посл. час ливневой дождь 10/4 600 м
[Cb calv As trans]
+8.4 +1.5 62 +5 +6 по сезону 1006.9 991.7
СЗ 4 10 км {ливн. осадки} 10/3 1000 м
[Sc Ac trans Ci fib]
+8.9 +1.7 61 +6 +7 по сезону 1007.0 991.8 +9.0 0.3
СЗ 2 10 км {ливн. осадки} 4/0
[Ac trans Ci fib]
+3.2 +1.1 86 0 0 прохладно 1007.8 992.3
З 2 10 км 3/0
[Ci fib]
+2.8 +1.2 89 -0 -0 прохладно 1007.2 991.7
ЮЗ 1 10 км 3/0
[Ac trans Ci fib]
+0.2 -0.6 94 -2 -2 очень
холодно
1006.9 991.2
З 3 10 км 1/0
[Ac trans]
+4.4 +2.2 86 +1 +2 очень
холодно
1006.2 990.9 -0.3
СЗ 4 10 км 6/6 1000 м
[Cu hum]
+8.9 +1.9 61 +6 +9 прохладно 1005.5 990.4
СЗ 4 10 км 6/6 1000 м
[Cu hum]
+12.2 -0.2 42 +11 +15 по сезону 1004.9 989.9
СЗ 5
{10}
10 км 8/5 1000 м
[Cu hum Ac trans]
+13.8 -2.7 32 +12 +14 прохладно 1004.6 989.7
СЗ 4 10 км 6/6 1000 м
[Cu hum]
+13.3 -2.5 33 +12 +13 по сезону 1004.7 989.8 +14.4
штиль 0 10 км 6/0
[Ac trans]
+7.2 +0.5 62 +7 +7 прохладно 1005.8 990.6
СВ 1 10 км 4/0
[Ac trans Ci fib]
+4.5 +1.1 79 +3 +3 холодно 1005.8 990.4
В 1 10 км 4/0
[Ac trans]
+4.7 +0.3 73 +4 +4 прохладно 1005.8 990.4
В 3 10 км 4/0
[Ac trans Ci fib]
+7.8 +1.1 63 +5 +6 прохладно 1005.4 990.2 +2.3
В 4 10 км 8/6 900 м
[Sc Ac As]
+12.1 +1.3 48 +10 +12 по сезону 1004.8 989.8
В 4 10 км 8/8 600 м
[Cu med, cong]
+15.4 -1.9 30 +15 +17 по сезону 1004.6 989.8
Ю 2 10 км в посл. час дождь 10/8 600 м
[Sc Ac und]
+14.0 +0.3 39 +14 +14 прохладно 1004.8 989.9
ЮЗ 3 10 км в посл. час ливневой дождь 10/8 450 м
[Cb cap Ac und]
+9.6 +6.6 82 +7 +7 холодно 1006.4 991.3 +15.4 3
СЗ 4 10 км в посл. час ливневой дождь 10/8 600 м
[Cb cap Ac und]
+7.8 +5.1 83 +4 +4 очень
холодно
1006.0 990.8
С 2 10 км 10/8 900 м
[Sc Ac und]
+7.7 +4.0 77 +6 +6 прохладно 1005.6 990.4
С 2 10 км 10/8 900 м
[Sc Ac und]
+6.0 +3.3 83 +4 +4 прохладно 1006.1 990.8
С 4 10 км 10/8 450 м
[Sc Ac und]
+6.4 +4.5 88 +3 +3 холодно 1006.7 991.4 +4.0 3
С 5 10 км 10/8 700 м
[Sc Ac trans]
+8.6 +3.6 71 +5 +6 холодно 1007.5 992.3
С 5 10 км 10/8 870 м
[Sc Ac trans]
+8.0 +2.5 68 +5 +5 очень
холодно
1009.8 994.5
С 5 10 км 10/8 600 м
[Sc Ac trans]
+7.1 +2.5 73 +3 +4 очень
холодно
1011.0 996.7
С 4 10 км 10/8 750 м
[Sc Ac trans]
+5.6 +1.5 75 +2 +2 очень
холодно
1013.8 998.3 +9.3
С 2 4000 м слаб. ливневой дождь 10/8 540 м
[Cb cap Ac trans]
+4.5 +3.0 90 +2 +2 очень
холодно
1014.9 999.4
СЗ 2 10 км слаб. ливневой дождь 10/8 630 м
[Cb cap Ac trans]
+3.9 +3.1 95 +1 +1 очень
холодно
1015.7 1000.1
С 1 10 км в посл. час ливневой дождь 10/10 330 м
[Cb calv]
+4.4 +3.1 91 +3 +3 холодно 1016.2 1000.7
СВ 2 10 км 10/10 330 м
[Cb calv]
+4.8 +3.1 89 +2 +2 очень
холодно
1017.5 1001.9 +3.8 1
С 2 10 км 10/10 420 м
[Sc]
+6.2 +3.2 81 +4 +4 очень
холодно
1018.4 1003.0
СВ 2 10 км слаб. ливневой дождь 10/10 600 м
[Cb calv]
+7.2 +4.5 83 +5 +5 очень
холодно
1019.5 1004.1
С 1 10 км {ливн. осадки} 10/6 800 м
[Sc Ac und]
+9.2 +3.8 69 +9 +10 очень
холодно
1019.6 1004.2
С 2 10 км слаб. ливневой дождь 10/8 540 м
[Cb calv Ac und]
+8.5 +5.8 83 +7 +7 очень
холодно
1020.0 1004.7 +11.3 0.3
С 2 10 км {ливн. осадки} 10/4 600 м
[Cb calv Ac und]
+7.8 +5.2 84 +6 +6 холодно 1020.6 1005.2
С 2 4000 м слаб. морось 10/10 210 м
[St]
+6.8 +5.5 91 +4 +4 холодно 1019.9 1004.5
С 2 10 км {морось} 10/10 240 м
[Sc]
+6.6 +5.2 91 +4 +4 прохладно 1018.7 1003.2
С 2 4000 м слаб. дождь 10/10 210 м
[Frnb Ns]
+6.0 +5.0 93 +3 +3 очень
холодно
1017.8 1002.3 +6.0 3
С 3 10 км слаб. дождь 10/10 360 м
[Sc]
+6.7 +4.7 87 +4 +4 очень
холодно
1017.4 1002.0 +5.9
С 1 4000 м слаб. дождь 10/10 400 м
[Sc]
+6.6 +4.9 89 +6 +6 очень
холодно
1017.3 1001.9
З 2 10 км в посл. час дождь 10/8 500 м
[Cb cap Ac und]
+8.2 +4.9 80 +6 +7 очень
холодно
1017.1 1001.7
СЗ 2 10 км слаб. ливневой дождь 10/10 500 м
[Cb cap]
+7.4 +5.4 87 +5 +5 очень
холодно
1017.5 1002.1 +8.4 6
З 1 10 км {ливн. осадки} 10/4 300 м
[Cb cap Ac As]
+5.8 +4.7 93 +5 +5 очень
холодно
1018.0 1002.5
ЮЗ 1 4000 м дымка {ливн. осадки} 10/10 180 м
[St]
+5.1 +4.4 95 +4 +4 холодно 1018.4 1002.9
ЮЗ 1 10 км {ливн. осадки, туман} 10/8 300 м
[Sc Ac und]
+4.8 +4.1 95 +3 +3 холодно 1018.9 1003.3
З 1 4000 м дымка {туман} 10/10 150 м
[St]
+5.1 +4.5 96 +4 +4 холодно 1020.3 1004.7 +4.1 0.5
ЮЗ 3 10 км {туман} 10/10 300 м
[Cb cap]
+7.8 +5.0 82 +5 +5 очень
холодно
1021.3 1005.9
З 3 10 км {дождь} 10/10 600 м
[Sc]
+11.1 +4.6 64 +9 +9 холодно 1023.0 1007.7
СЗ 3 10 км {дождь} 8/8 900 м
[Cu hum]
+15.0 +3.8 47 +14 +16 прохладно 1023.6 1008.5
С 3 10 км 4/4 1000 м
[Cu hum]
+15.2 +2.7 43 +15 +16 по сезону 1024.6 1009.5 +15.7 0.3
штиль 0 10 км 3/0
[Ci fib]
+8.9 +4.5 74 +8 +8 холодно 1027.1 1011.6
ЮВ 1 10 км 3/0
[Ci fib]
+4.9 +3.4 90 +4 +4 холодно 1028.1 1012.4
В 1 10 км 4/0
[Ac As]
+5.1 +3.7 91 +4 +4 прохладно 1029.3 1013.6
Местоположение метеостанции Иваново (Ивановская область, Россия): широта 56.95 долгота 40.97 высота над уровнем моря 126 м.
В архиве по умолчанию представлена погода в Иванове за последнюю неделю. Архивные данные за месяц целиком и за предыдущие месяцы, начиная с января 2011 года, Вы можете получить, выбрав интересующий диапазон дат из раскрывающегося списка и нажав кнопку "Найти!".
*Определитесь, кто Вы:
Внимание! Время в таблицах - всемирное. Для получения местного времени необходимо прибавить поправку, которая равна 3 ч.
Смотрите также архив погоды в соседних городах и на ближайших метеорологических станциях:
Партнеры нашего сайта:      
Пояснения к столбцам:
  • Ветер - указаны скорость ветра в м/с - средняя за 10 мин, порывы в срок и между сроками (в фигурных скобках) и направление, откуда дует ветер: С - северный,
  • СВ - северо-восточный, В - восточный, ЮВ - юго-восточный, Ю - южный, ЮЗ - юго-западный, З - западный, СЗ - северо-западный.
  • Видимость - горизонтальная дальность видимости в метрах или километрах. При видимости от 1 до 10 км при отсутствии осадков обычно наблюдается дымка, при ухудшении видимости до 1 км и менее - туман. В сухую погоду видимость может ухудшаться дымом, пылью или мглою.
  • Явления - указаны атмосферные явления, наблюдавшиеся в срок или в последний час перед сроком; фигурными скобками обозначены явления, наблюдавшиеся между сроками (за 1-3 часа до срока); квадратными скобками обозначены град или гололедные отложения с указанием их диаметра в мм.
  • Облачность - указаны через наклонную черту общая и нижняя облачность в баллах и высота нижней границы облаков в метрах; квадратными скобками обозначены формы облаков: Ci - перистые, Cs - перисто-слоистые, Cc - перисто-кучевые, Ac - высококучевые, As - высокослоистые, Sc - слоисто-кучевые, Ns - слоисто-дождевые, Cu - кучевые, Cb - кучево-дождевые. Подробнее классификацию облаков см. в Атласе облаков (PDF).
  • T - Температура воздуха - температура, измеренная на высоте 2 м над землей.
  • Td - Температура точки росы - температура, при понижении до которой содержащийся в воздухе водяной пар достигнет насыщения.
  • f - Относительная влажность воздуха - влажноcть воздуха, измеренная на высоте 2 м над землей.
  • Te - Эффективная температура - температура, которую ощущает одетый по сезону человек в тени. Характеристика душности погоды. При расчете учитывается влияние влажности воздуха и скорости ветра на теплоощущения человека.
  • Tes - Эффективная температура на солнце - температура, которую ощущает человек, с поправкой на солнечный нагрев. Характеристика знойности погоды. Зависит от высоты солнца над горизонтом, облачности и скорости ветра. Ночью, в пасмурную погоду, а также при ветре 12 м/с и более поправка равна нулю.
  • P - Атмосферное давление - приведенное к уровню моря атмосферное давление.
  • Po - Атмосферное давление - измеренное на уровне метеостанции атмосферное давление.
  • Tmin - Минимальная температура - минимум температуры воздуха на высоте 2 м над землей.
  • Tmax - Максимальная температура - максимум температуры воздуха на высоте 2 м над землей.
  • R - Количество осадков - Количество выпавших осадков за период времени, мм. При наведении курсора мыши на число - период времени, за который выпало указанное количество осадков.
  • R24 - Количество осадков - Количество выпавших осадков за 24 часа, мм.
  • S - Снежный покров - Высота снежного покрова, см. При наведении курсора мыши на число - состояние снежного покрова и степень покрытия местности в баллах.